Regional Weather Roundup
Issued by NWS

Home | Current Version | Previous Version | Text Only | Print | Product List | Glossary Off
Versions: 1 2 3 4 5 6 7 8 9 10 11 12 13 14 15 16 17 18 19 20 21 22 23 24 25 26 27 28 29 30 31 32 33 34 35 36 37 38 39 40 41 42 43 44 45 46 47 48 49 50

000
ASUS43 KDTX 131001
RWRMI
MICHIGAN HOURLY REGIONAL WEATHER ROUNDUP
NATIONAL WEATHER SERVICE DETROIT/PONTIAC MI
500 AM EST SAT FEB 13 2016

NOTE: "FAIR" INDICATES FEW OR NO CLOUDS BELOW 12,000 FEET WITH NO
SIGNIFICANT WEATHER AND/OR OBSTRUCTION TO VISIBILITY.

MIZ047>049-052>055-059>063-066>070-074>076-081>083-131100-
SOUTHEAST LOWER MICHIGAN

CITY           SKY/WX    TMP DP  RH WIND       PRES   REMARKS
ADRIAN         CLEAR      3  -8  60 NW7       30.37R WCI  -9
ALMA           PTCLDY     5   0  79 W6        30.35R WCI  -6
ANN ARBOR      PTCLDY    -1 -10  65 W8        30.35R WCI -15
BAD AXE        CLOUDY     1  -8  65 NW13      30.31R WCI -16
CARO           CLEAR     -2 -11  65 NW6       30.33R WCI -14
DETROIT CITY   CLEAR      4  -6  63 W9        30.35R WCI -10
DETROIT        CLEAR      3  -7  63 W8        30.37R WCI -10
FLINT          CLEAR     -2 -10  69 W7        30.34R WCI -15
GROSSE ILE     CLEAR      5  -8  56 W7        30.35R WCI  -7
HILLSDALE      CLEAR      2  -9  61 NW8       30.32S WCI -12
HOWELL         PTCLDY     1  -7  68 W8        30.32R WCI -12

CITY           SKY/WX    TMP DP  RH WIND       PRES   REMARKS
JACKSON        PTCLDY     1  -7  68 NW7       30.34R WCI -12
LAMBERTVILLE   CLEAR      4  -7  60 NW3       30.39R
LANSING        PTCLDY     3  -4  72 W8        30.36R WCI -10
LAPEER         FLURRIES   2  -2  83 NW3       30.32R
MASON          CLEAR      2  -5  73 W8        30.34S WCI -12
MONROE         CLEAR      4  -8  58 W8        30.37R WCI  -9
MT. CLEMENS    MOCLDY     3  -4  71 NW6       30.32R WCI  -8
PONTIAC        CLEAR      0  -8  69 W8        30.30R WCI -14
PORT HOPE        N/A      5  -4  66 NW22G31   30.27R WCI -16
PORT HURON     CLEAR      1  -8  66 NW8       30.32R WCI -12
TRI CITIES     MOCLDY     2  -5  72 N7        30.36R WCI -11
MIDLAND        CLOUDY     2  -8  63 N3        30.36R
TROY           CLEAR      5  -6  62 W6        30.35R WCI  -6
SAGINAW HB     CLEAR      1  -4  78 NW7       30.36R WCI -11
$$
MIZ043>046-050>051-056>058-064>065-071>073-077>080-131100-
SOUTHWEST LOWER MICHIGAN

CITY           SKY/WX    TMP DP  RH WIND       PRES   REMARKS
BATTLE CREEK   CLEAR     -1  -7  75 W7        30.37R WCI -14
BENTON HARBOR  CLOUDY    13   3  64 W13G26    30.44R HAZE    WCI  -2
BIG RAPIDS     LGT SNOW   1  -2  87 W5        30.32R WCI  -9
COLDWATER      PTCLDY    -2 -10  69 W6        30.38R WCI -14
FREMONT        CLOUDY     8   0  69 W7        30.37R WCI  -3
HOLLAND        SNOW       9   4  80 CALM      30.41R VSB 1/2
GRAND RAPIDS   CLOUDY     8   1  73 NW10      30.38R WCI  -6
IONIA          FAIR       4  -2  75 W8        30.36R WCI  -9
KALAMAZOO      FLURRIES   0  -7  72 W7        30.39R WCI -13
LUDINGTON      LGT SNOW  10   2  72 NW12G22   30.39R WCI  -5
MARSHALL       PTCLDY     4  -5  66 NW5       30.36R WCI  -5
MOUNT PLEASANT CLOUDY     6  -1  70 W7        30.33R WCI  -5
MUSKEGON       LGT SNOW  11   2  67 NW14      30.41R WCI  -5
SOUTH HAVEN    CLOUDY    13   3  65 NW9G20    30.42R WCI   1
$$
MIZ016>042-131100-
NORTHERN LOWER MICHIGAN

CITY           SKY/WX    TMP DP  RH WIND       PRES   REMARKS
ALPENA         LGT SNOW  -8 -13  78 W3        30.35R
BEAVER ISLAND  LGT SNOW  -3  -7  82 E8        30.35R WCI -17
BELLAIRE       CLOUDY    -5 -12  71 CALM      30.38R HAZE
CADILLAC       LGT SNOW   3  -2  80 NE3       30.25R
CHARLEVOIX     PTCLDY    -6 -13  74 SE6       30.38R WCI -19
FRANKFORT      CLOUDY    10   0  61 NW12G24   30.36R WCI  -4
GAYLORD        CLEAR    -14 -19  79 CALM      30.27R
GRAYLING       PTCLDY   -19 -24  80 CALM      30.31R
HARBOR SPRINGS PTCLDY   -11 -17  74 NE6       30.35R WCI -25
HOUGHTON LAKE  MOCLDY    -8 -13  78 E3        30.30R
MANISTEE       CLOUDY    10  -2  56 NW20G25   30.36S WCI  -8
OSCODA         CLEAR     -6 -13  72 NW6       30.34R WCI -19
PELLSTON       PTCLDY   -16 -21  78 CALM      30.37R
ROGERS CITY    CLOUDY    -5 -13  67 NW8       30.36R HAZE    WCI -20
TRAVERSE CITY  LGT SNOW   3  -3  76 SE6       30.34R WCI  -8
$$
MIZ007>008-015-131100-
EASTERN UPPER MICHIGAN

CITY           SKY/WX    TMP DP  RH WIND       PRES   REMARKS
KINROSS        CLOUDY   -17 -20  83 CALM      30.35S
MACKINAC ISLAN CLOUDY   -11 -19  67 NE5       30.36R WCI -23
NEWBERRY       LGT SNOW -10 -14  84 SE5       30.33R WCI -22
S. S. MARIE    MOCLDY   -16 -26  61 S3        30.36R
$$
MIZ004>006-011>014-085-131100-
CENTRAL UPPER MICHIGAN

CITY           SKY/WX    TMP DP  RH WIND       PRES   REMARKS
MANISTIQUE     LGT SNOW   4   0  84 W7        30.33R WCI  -8
ESCANABA       CLEAR      0  -9  65 NW12      30.40R WCI -18
MENOMINEE      CLEAR     -2 -11  65 NW6       30.45R WCI -14
SAWYER-GWINN   LGT SNOW  -1  -6  81 NW13      30.33S WCI -20
$$
MIZ001>003-009>011-084-131100-
WESTERN UPPER MICHIGAN

CITY           SKY/WX    TMP DP  RH WIND       PRES   REMARKS
IRON MOUNTAIN  PTCLDY   -14 -18  82 CALM      30.38R
HOUGHTON       LGT SNOW   1  -6  72 NW16G23   30.39S WCI -19
COPPER HARBOR    N/A      6   2  83 NE24G33   30.40S WCI -16
IRONWOOD       CLOUDY     0  -4  85 NW14      30.43S WCI -19
$$

ABBREVIATIONS USED IN REMARKS
   TC - TEMPERATURE IN CELSIUS
  WCI - WIND CHILL INDEX
   HX - HEAT INDEX
  VSB - VISIBILITY




USA.gov is the U.S. government's official web portal to all federal, state and local government web resources and services.